Location: Most
(50.5133°N, 13.6207°E)
Time: 18:47:46
(UTC+02:00)

ISS - Pass Details

Date: 20 May 2019
Orbit: 407 x 410 km, 51.6° (Epoch: 23 May)

Event Time Altitude Azimuth Distance (km) Brightness Sun altitude
Rises 02:50:29 0° 286° (WNW) 2,340 -0.1 -15.7°
Reaches altitude 10° 02:52:37 10° 280° (W) 1,477 -1.2 -15.5°
Maximum altitude 02:55:47 43° 207° (SSW) 585 -3.5 -15.3°
Drops below altitude 10° 02:58:56 10° 134° (SE) 1,472 -1.2 -15.0°
Sets 03:01:04 0° 128° (SE) 2,331 -0.1 -14.9°
